Regional Weather Roundup
Issued by NWS Goodland, KS

Home | Current Version | Previous Version | Graphics & Text | Print | Product List | Glossary Off
Versions: 1 2 3 4 5 6 7 8 9 10 11 12 13 14 15 16 17 18 19 20 21 22 23 24 25 26 27 28 29 30 31 32 33 34 35 36 37 38 39 40 41 42 43 44 45 46 47 48 49 50

000
ASUS43 KGLD 252008
RWRGLD

GOODLAND FORECAST AREA HOURLY WEATHER ROUNDUP
NATIONAL WEATHER SERVICE GOODLAND KS
100 PM MST SUN JAN 25 2015

...OFFICIAL OBSERVATIONS...

CITY           SKY/WX    TMP DP  RH WIND       PRES   REMARKS
GOODLAND KS    SUNNY     54  26  34 NW25G36   30.09F
HILL CITY KS   SUNNY     53  25  33 N18G30    30.09F
IMPERIAL NEB   SUNNY     54  20  26 NW23G31   30.06F
MCCOOK NEB     SUNNY     52  21  29 N16G29    30.07F
AKRON CO       PTSUNNY   50  32  50 NW12      30.10F
BURLINGTON CO  SUNNY     51  31  46 N18G25    30.10F
LIMON CO       SUNNY     53  25  33 NW18      30.13F
$$

...UNOFFICIAL OBSERVATIONS...

CITY           SKY/WX    TMP DP  RH WIND       PRES   REMARKS
COLBY KS       SUNNY     54  28  37 NW23G29   30.07F
GOVE KS          N/A     52  32  46 MISG        N/A
NORTON KS      SUNNY     48  21  34 NW22      30.06F
SHARON SPRINGS   N/A     55  29  36 N26G33      N/A
KIT CARSON CO    N/A     54  31  40 MISG        N/A
YUMA CO          N/A     51  32  49 N20         N/A
$$



USA.gov is the U.S. government's official web portal to all federal, state and local government web resources and services.